WW6RY Weather Reports


Display with metric or nautical units.
time (UTC)temp
F
wind
direction
speed
MPH
gust
MPH
rain 1hr
in
rain 24hr
in
rain mn
in
humidity
%
barometer
mb
20260506190817 77 113 1.0 2.0 0.00 0.00 0.00 28 1017.7
20260506185817 76 0.0 0.0 0.00 0.00 0.00 30 1017.8
20260506184817 75 338 1.0 3.0 0.00 0.00 0.00 32 1017.9
20260506183817 74 90 2.0 5.0 0.00 0.00 0.00 32 1017.8
20260506182817 74 45 1.0 3.0 0.00 0.00 0.00 33 1018.2
20260506181837 73 0.0 0.0 0.00 0.00 0.00 33 1018.0
20260506180817 74 0.0 1.0 0.00 0.00 0.00 34 1018.3
20260506175816 72 158 1.0 2.0 0.00 0.00 0.00 36 1018.2
20260506174816 71 158 1.0 2.0 0.00 0.00 0.00 37 1018.0
20260506173817 71 68 2.0 3.0 0.00 0.00 0.00 37 1018.0
20260506172817 69 158 4.0 5.0 0.00 0.00 0.00 38 1017.9
20260506171816 69 338 4.0 6.0 0.00 0.00 0.00 38 1018.2
20260506170817 68 0 4.0 7.0 0.00 0.00 0.00 40 1018.0
20260506165817 68 45 2.0 4.0 0.00 0.00 0.00 40 1018.1
20260506164816 67 315 2.0 5.0 0.00 0.00 0.00 41 1018.1
20260506163836 66 315 4.0 6.0 0.00 0.00 0.00 42 1017.9
20260506162816 65 293 1.0 2.0 0.00 0.00 0.00 45 1017.9
20260506161817 65 0.0 3.0 0.00 0.00 0.00 44 1017.9
20260506160836 65 315 2.0 4.0 0.00 0.00 0.00 45 1017.8
20260506155816 64 293 1.0 3.0 0.00 0.00 0.00 47 1017.7
20260506154816 64 315 2.0 6.0 0.00 0.00 0.00 46 1017.7
20260506153816 63 315 1.0 2.0 0.00 0.00 0.00 48 1017.9
20260506152816 62 270 1.0 3.0 0.00 0.00 0.00 51 1017.7
20260506151816 61 315 1.0 3.0 0.00 0.00 0.00 52 1017.7
20260506150836 60 293 1.0 5.0 0.00 0.00 0.00 53 1017.7
20260506145816 59 248 3.0 6.0 0.00 0.00 0.00 56 1017.5
20260506144816 59 270 3.0 8.0 0.00 0.00 0.00 57 1017.7
20260506143816 57 248 2.0 7.0 0.00 0.00 0.00 60 1017.5
20260506142816 56 270 1.0 3.0 0.00 0.00 0.00 63 1017.4
20260506141816 55 0.0 1.0 0.00 0.00 0.00 65 1017.5
20260506140816 54 0.0 2.0 0.00 0.00 0.00 67 1017.5
20260506135816 53 270 5.0 7.0 0.00 0.00 0.00 69 1017.2
20260506134816 52 315 2.0 4.0 0.00 0.00 0.00 71 1017.2
20260506133816 51 0.0 1.0 0.00 0.00 0.00 72 1017.1
20260506132818 51 338 1.0 4.0 0.00 0.00 0.00 74 1016.8
20260506131816 50 0.0 1.0 0.00 0.00 0.00 76 1016.8
20260506130816 50 293 1.0 3.0 0.00 0.00 0.00 77 1016.7
20260506125836 49 270 1.0 3.0 0.00 0.00 0.00 80 1016.4
20260506124816 47 338 1.0 2.0 0.00 0.00 0.00 79 1016.5
20260506123816 47 0.0 0.0 0.00 0.00 0.00 78 1016.6
20260506122816 47 0.0 2.0 0.00 0.00 0.00 80 1016.6
20260506121816 44 0.0 0.0 0.00 0.00 0.00 84 1016.4
20260506120816 43 0.0 0.0 0.00 0.00 0.00 84 1016.1
20260506115816 41 0.0 0.0 0.00 0.00 0.00 81 1015.8
20260506114816 41 0.0 0.0 0.00 0.00 0.00 80 1016.0
20260506113816 42 0.0 0.0 0.00 0.00 0.00 79 1015.9
20260506112836 43 338 2.0 3.0 0.00 0.00 0.00 75 1016.1
20260506111816 47 315 6.0 7.0 0.00 0.00 0.00 71 1016.3
20260506110816 50 270 2.0 4.0 0.00 0.00 0.00 74 1016.4
20260506105817 50 225 3.0 7.0 0.00 0.00 0.00 74 1016.3
20260506104816 49 270 1.0 3.0 0.00 0.00 0.00 76 1016.4
20260506103816 49 248 1.0 3.0 0.00 0.00 0.00 77 1016.4
20260506102816 49 248 3.0 4.0 0.00 0.00 0.00 77 1016.4
20260506101836 49 248 2.0 4.0 0.00 0.00 0.00 76 1016.4
20260506100816 50 225 3.0 4.0 0.00 0.00 0.00 76 1016.4
20260506095816 50 225 4.0 6.0 0.00 0.00 0.00 76 1016.4
20260506094856 50 225 6.0 11.0 0.00 0.00 0.00 76 1016.5
20260506093816 50 225 6.0 8.0 0.00 0.00 0.00 76 1016.5
20260506092816 50 225 5.0 10.0 0.00 0.00 0.00 76 1016.6
20260506091836 49 225 5.0 7.0 0.00 0.00 0.00 76 1016.3
20260506090816 50 225 4.0 5.0 0.00 0.00 0.00 75 1016.4
20260506085816 50 225 5.0 9.0 0.00 0.00 0.00 75 1016.4
20260506084816 50 248 5.0 12.0 0.00 0.00 0.00 75 1016.2
20260506083816 50 225 4.0 6.0 0.00 0.00 0.00 73 1016.2
20260506082815 50 225 5.0 9.0 0.00 0.00 0.00 73 1016.1
20260506081816 50 225 6.0 8.0 0.00 0.00 0.00 74 1016.1
20260506080816 49 225 4.0 5.0 0.00 0.00 0.00 74 1016.2
20260506072816 49 248 4.0 7.0 0.00 0.00 0.00 73 1016.1
20260506071816 50 225 4.0 7.0 0.00 0.00 0.00 72 1016.0
20260506070815 50 225 3.0 4.0 0.00 0.00 0.00 71 1016.0
20260506061815 52 225 5.0 7.0 0.00 0.00 0.00 66 1015.5
20260506060818 52 248 5.0 7.0 0.00 0.00 0.00 67 1015.5
20260506050817 52 248 4.0 8.0 0.00 0.00 0.00 68 1014.9
20260506044819 53 225 4.0 8.0 0.00 0.00 0.00 67 1014.9
20260506043837 53 248 4.0 7.0 0.00 0.00 0.00 67 1014.7
20260506042837 53 248 4.0 8.0 0.00 0.00 0.00 66 1014.6
20260506041817 53 225 4.0 7.0 0.00 0.00 0.00 67 1014.4
20260506040837 53 248 8.0 13.0 0.00 0.00 0.00 67 1014.4
20260506035818 53 225 3.0 5.0 0.00 0.00 0.00 67 1014.3
20260506034817 53 248 4.0 9.0 0.00 0.00 0.00 66 1013.9
20260506033817 53 270 5.0 8.0 0.00 0.00 0.00 66 1013.8
20260506032837 53 248 6.0 12.0 0.00 0.00 0.00 65 1013.6
20260506031817 54 248 5.0 11.0 0.00 0.00 0.00 65 1013.6
20260506030817 54 225 4.0 9.0 0.00 0.00 0.00 65 1013.5
20260506025837 54 248 5.0 7.0 0.00 0.00 0.00 64 1013.5
20260506024817 55 248 5.0 8.0 0.00 0.00 0.00 63 1013.1
20260506023817 55 270 4.0 8.0 0.00 0.00 0.00 63 1013.2
20260506022817 55 270 6.0 10.0 0.00 0.00 0.00 62 1013.1
20260506021817 56 248 6.0 12.0 0.00 0.00 0.00 60 1012.8
20260506020837 57 248 3.0 7.0 0.00 0.00 0.00 59 1012.9
20260506015817 58 270 8.0 11.0 0.00 0.00 0.00 57 1012.7
20260506014817 58 248 3.0 7.0 0.00 0.00 0.00 56 1012.5
20260506013817 58 225 1.0 3.0 0.00 0.00 0.00 56 1012.5
20260506012817 59 270 8.0 14.0 0.00 0.00 0.00 54 1012.5
20260506011817 60 270 6.0 13.0 0.00 0.00 0.00 52 1012.6
20260506010817 61 315 4.0 12.0 0.00 0.00 0.00 50 1012.5
20260506005817 62 248 4.0 6.0 0.00 0.00 0.00 49 1012.6
20260506004817 62 315 6.0 12.0 0.00 0.00 0.00 48 1012.6
20260506003817 62 315 3.0 8.0 0.00 0.00 0.00 48 1012.5
20260506002817 63 293 5.0 9.0 0.00 0.00 0.00 47 1012.5
20260506001817 63 270 2.0 4.0 0.00 0.00 0.00 47 1012.5
20260506000817 63 293 4.0 10.0 0.00 0.00 0.00 45 1012.3
20260505235837 64 248 3.0 6.0 0.00 0.00 0.00 44 1012.1
20260505234817 65 270 5.0 9.0 0.00 0.00 0.00 42 1012.2
20260505233837 65 225 2.0 5.0 0.00 0.00 0.00 41 1012.2
20260505232817 65 293 6.0 10.0 0.00 0.00 0.00 41 1012.1
20260505231817 65 315 4.0 6.0 0.00 0.00 0.00 41 1012.1
20260505230817 65 270 3.0 4.0 0.00 0.00 0.00 42 1012.2
20260505225857 65 248 5.0 9.0 0.00 0.00 0.00 42 1012.2
20260505224857 65 270 6.0 13.0 0.00 0.00 0.00 42 1012.4
20260505223837 67 270 5.0 10.0 0.00 0.00 0.00 42 1012.5
20260505222817 65 293 3.0 6.0 0.00 0.00 0.00 44 1012.5
20260505221817 66 293 3.0 6.0 0.00 0.00 0.00 39 1012.4
20260505220817 65 248 3.0 6.0 0.00 0.00 0.00 43 1012.4
20260505215817 66 225 6.0 13.0 0.00 0.00 0.00 41 1012.4
20260505214816 66 315 2.0 4.0 0.00 0.00 0.00 41 1012.5
20260505213818 66 248 9.0 18.0 0.00 0.00 0.00 44 1012.6
20260505212817 66 225 7.0 11.0 0.00 0.00 0.00 43 1012.5
20260505211817 65 248 9.0 13.0 0.00 0.00 0.00 45 1012.6
20260505210816 64 248 5.0 9.0 0.00 0.00 0.00 46 1012.5
20260505205816 64 248 2.0 4.0 0.00 0.00 0.00 44 1012.5
20260505204836 64 225 9.0 18.0 0.00 0.00 0.00 47 1012.4
20260505203816 62 225 6.0 9.0 0.00 0.00 0.00 50 1012.5
20260505202817 61 248 5.0 9.0 0.00 0.00 0.00 51 1012.6
20260505201837 61 248 7.0 13.0 0.00 0.00 0.00 50 1012.6
20260505200816 61 225 6.0 12.0 0.00 0.00 0.00 50 1012.7
20260505195816 62 248 5.0 7.0 0.00 0.00 0.00 50 1012.8
20260505194816 62 225 9.0 12.0 0.00 0.00 0.00 50 1012.8
20260505193817 61 270 5.0 9.0 0.00 0.00 0.00 51 1012.7
20260505192817 61 225 6.0 11.0 0.00 0.00 0.00 50 1012.7
20260505191816 62 225 10.0 15.0 0.00 0.00 0.00 50 1012.8